EW4652 Weather Reports


Display with metric or nautical units.
time (UTC)temp
F
wind
direction
speed
MPH
gust
MPH
rain 1hr
in
rain 24hr
in
rain mn
in
humidity
%
barometer
mb
20260901051524 68 283 0.0 2.0 0.00 0.00 0.00 96 1013.5
20260901050022 68 283 0.0 2.0 0.00 0.00 0.00 95 1013.5
20260901044520 68 283 0.0 2.0 0.00 0.00 0.00 94 1013.4
20260901043020 69 283 0.0 1.0 0.00 0.00 0.00 95 1013.3
20260901041518 68 283 1.0 2.0 0.00 0.00 0.00 94 1013.2
20260901040018 69 283 0.0 1.0 0.00 0.00 0.00 94 1013.2
20260901034523 70 283 1.0 2.0 0.00 0.00 0.00 94 1013.2
20260901033022 70 283 0.0 0.0 0.00 0.00 0.00 94 1013.1
20260901031521 71 283 0.0 2.0 0.00 0.00 0.00 94 1013.3
20260901030015 71 283 0.0 1.0 0.00 0.00 0.00 94 1013.1
20260901024514 71 283 0.0 0.0 0.00 0.00 0.00 94 1013.1
20260901023018 71 283 1.0 3.0 0.00 0.00 0.00 93 1013.0
20260901021512 72 283 0.0 2.0 0.00 0.00 0.00 93 1012.8
20260901020009 72 283 1.0 2.0 0.00 0.00 0.00 93 1012.6
20260901014509 73 283 0.0 1.0 0.00 0.00 0.00 92 1012.7
20260901013007 74 283 0.0 2.0 0.00 0.00 0.00 92 1012.5
20260901011515 75 283 0.0 2.0 0.00 0.00 0.00 92 1012.3
20260901010004 76 283 0.0 2.0 0.00 0.00 0.00 91 1012.1
20260901004503 77 283 0.0 2.0 0.00 0.00 0.00 89 1012.2
20260901003002 79 283 0.0 1.0 0.00 0.00 0.00 88 1012.1
20260901001502 80 283 0.0 2.0 0.00 0.00 0.00 87 1011.9
20260901000001 81 283 1.0 3.0 0.00 0.00 0.00 86 1011.9
20260831234600 82 298 2.0 5.0 0.00 0.00 0.00 84 1012.1
20260831233058 83 299 3.0 9.0 0.00 0.00 0.00 83 1012.0
20260831231558 83 304 5.0 10.0 0.00 0.00 0.00 84 1011.9
20260831230109 83 302 7.0 10.0 0.00 0.00 0.00 82 1011.8
20260831224556 84 298 7.0 10.0 0.00 0.00 0.00 81 1011.6
20260831223056 85 307 6.0 10.0 0.00 0.00 0.00 81 1011.5
20260831221602 86 318 7.0 11.0 0.00 0.00 0.00 80 1011.4
20260831220107 86 249 5.0 9.0 0.00 0.00 0.00 81 1011.3
20260831214556 85 243 5.0 11.0 0.00 0.07 0.00 80 1011.4
20260831213101 86 262 6.0 12.0 0.00 0.07 0.00 80 1011.3
20260831211602 86 240 6.0 11.0 0.00 0.07 0.00 79 1011.2
20260831210051 85 224 5.0 10.0 0.00 0.07 0.00 81 1011.3
20260831204555 85 244 6.0 12.0 0.00 0.28 0.00 81 1011.6
20260831203052 85 250 7.0 13.0 0.00 0.28 0.00 80 1011.5
20260831201548 86 255 5.0 11.0 0.00 0.28 0.00 80 1011.3
20260831200054 85 238 5.0 9.0 0.00 0.28 0.00 81 1011.3
20260831194550 85 232 3.0 10.0 0.00 0.28 0.00 83 1011.2
20260831193046 83 214 5.0 8.0 0.00 0.28 0.00 83 1011.0
20260831191544 82 205 3.0 6.0 0.00 0.28 0.00 85 1010.9
20260831184543 83 182 4.0 10.0 0.00 0.28 0.00 82 1010.5
20260831183043 84 161 4.0 7.0 0.00 0.28 0.00 81 1010.7
20260831181542 85 215 3.0 5.0 0.00 0.28 0.00 78 1011.3
20260831180046 85 246 1.0 5.0 0.00 0.28 0.00 80 1011.0
20260831174545 84 253 2.0 5.0 0.00 0.28 0.00 81 1011.4
20260831173038 84 250 3.0 7.0 0.00 0.28 0.00 82 1011.5
20260831171536 84 242 2.0 6.0 0.00 0.28 0.00 81 1011.5
20260831170035 84 225 4.0 8.0 0.00 0.28 0.00 79 1011.6
20260831164550 84 205 3.0 7.0 0.00 0.28 0.00 81 1011.6
20260831163031 83 246 3.0 7.0 0.00 0.28 0.00 81 1011.7
20260831161528 82 259 3.0 7.0 0.00 0.28 0.00 80 1011.6
20260831160024 81 259 3.0 8.0 0.00 0.28 0.00 84 1011.6
20260831154522 81 232 4.0 8.0 0.00 0.28 0.00 83 1011.6
20260831153017 79 252 4.0 9.0 0.00 0.28 0.00 85 1011.2
20260831151514 78 251 3.0 7.0 0.00 0.28 0.00 87 1011.1
20260831150012 77 247 3.0 6.0 0.00 0.28 0.00 85 1010.9
20260831144515 77 238 6.0 9.0 0.00 0.28 0.00 84 1011.0
20260831143124 77 244 4.0 8.0 0.00 0.28 0.00 86 1011.0
20260831141550 76 244 5.0 9.0 0.00 0.28 0.00 87 1010.8
20260831140044 75 223 6.0 9.0 0.00 0.28 0.00 88 1010.5
20260831134541 74 232 5.0 8.0 0.00 0.28 0.00 89 1010.6
20260831133036 73 225 3.0 6.0 0.00 0.28 0.00 92 1010.4
20260831131532 72 209 5.0 8.0 0.00 0.28 0.00 92 1010.5
20260831130028 71 234 3.0 7.0 0.00 0.28 0.00 94 1010.4
20260831124525 69 232 2.0 4.0 0.00 0.28 0.00 94 1010.2
20260831123021 69 207 2.0 4.0 0.00 0.28 0.00 94 1010.1
20260831121519 68 207 3.0 5.0 0.00 0.28 0.00 95 1010.0
20260831120031 67 211 0.0 1.0 0.00 0.28 0.00 94 1010.0
20260831114526 68 211 0.0 2.0 0.00 0.28 0.00 94 1009.8
20260831113013 68 211 1.0 3.0 0.00 0.28 0.00 94 1009.6
20260831111511 68 211 2.0 3.0 0.00 0.28 0.00 95 1009.5
20260831110010 68 212 1.0 2.0 0.00 0.28 0.00 94 1009.5
20260831104509 68 212 1.0 2.0 0.00 0.28 0.00 94 1009.6
20260831103007 68 212 1.0 2.0 0.00 0.28 0.00 93 1009.7
20260831101505 69 212 1.0 3.0 0.00 0.28 0.00 93 1009.6
20260831100003 69 212 1.0 3.0 0.00 0.28 0.00 93 1009.7
20260831094502 69 212 1.0 3.0 0.00 0.28 0.00 93 1009.6
20260831093059 70 211 2.0 5.0 0.00 0.28 0.00 93 1009.7
20260831091601 70 208 2.0 5.0 0.00 0.28 0.00 93 1009.6
20260831090055 70 202 2.0 4.0 0.00 0.28 0.00 92 1009.5
20260831084605 71 204 1.0 4.0 0.00 0.28 0.00 92 1009.6
20260831083103 72 194 4.0 7.0 0.00 0.28 0.00 92 1009.5
20260831081549 72 194 3.0 8.0 0.00 0.28 0.00 92 1009.6
20260831080047 72 200 4.0 8.0 0.00 0.28 0.00 92 1009.7
20260831074648 72 202 4.0 8.0 0.00 0.28 0.00 92 1009.7
20260831073045 72 190 4.0 7.0 0.00 0.28 0.00 92 1009.6
20260831071543 72 201 4.0 7.0 0.00 0.28 0.00 92 1009.6
20260831070043 73 198 3.0 6.0 0.00 0.28 0.00 92 1009.7
20260831064538 73 188 4.0 7.0 0.00 0.28 0.00 91 1009.9
20260831063037 73 201 4.0 7.0 0.00 0.28 0.00 91 1010.1
20260831061535 73 188 5.0 9.0 0.00 0.28 0.00 91 1010.1
20260831060033 74 194 5.0 10.0 0.00 0.28 0.00 90 1010.2
20260831054530 74 196 5.0 10.0 0.00 0.28 0.00 89 1010.3
20260831053029 74 175 7.0 11.0 0.00 0.28 0.00 89 1010.4